Content
SEND FEEDBACK

Daily
Averages
Monthly
Summary
United States of America

ST. LOUIS, MISSOURI


Home > North America > United States > Missouri
Elevation: 535 feet     Latitude: 38 45N     Longitude: 090 22W

WEATHER
 
SELECT A DAY
Number of Records: 196,364;   Date Range: 1/1/95 - 7/26/14
 
SHARE

PRINT THIS DATA

[ ← Previous Day ]
WEATHER ALMANAC - NOVEMBER 16, 2013
[ Next Day → ]
[ °C ]   °F
Weather ElementAverageHighLow
Temperature59 °F64.9 °F (7:54 pm)50 °F (12:54 am)
Dewpoint51.7 °F60.1 °F (10:54 pm)43 °F (12:54 am)
Humidity76.6 %87 % (10:54 pm)70 % (11:54 am)
Barometer29.77 in29.91 in (12:54 am)29.61 in (9:54 pm)
Wind Speed9.2 mph18.4 mph (9:54 pm)
Wind Gust29.9 mph (9:54 pm)
Weather ElementAverage
Visibility10 mi
Wind DirectionSSE (156.7 °)

Weather ElementTotal
Precipitation0.04 in
Heating Degree Days7.6 (Base 65)
Growing Degree Days7.5 (Base 50)
Averaged from 27 records on November 16, 2013
WEATHER CONDITIONS BREAKOUT
WIND DIRECTION BREAKOUT
WEATHER BY HOUR - NOVEMBER 16, 2013
[ °C ]   °F
Local TimeTemperatureDewpointHumidityBarometerVisibilityWind DirectionWind SpeedGust SpeedPrecipitationEventsConditions
12:54 AM50.0 °F43.0 °F77 %29.91 in10.0 miSSE (150°)3.5 mphScattered Clouds
1:54 AM50.0 °F44.1 °F80 %29.89 in10.0 miVariable3.5 mphPartly Cloudy
2:51 AM51.8 °F44.6 °F76 %29.89 in10.0 miSouth (180°)3.5 mphMostly Cloudy
2:54 AM52.0 °F45.0 °F77 %29.89 in10.0 miSouth (190°)5.8 mphMostly Cloudy
3:14 AM51.8 °F46.4 °F82 %29.88 in10.0 miSouth (190°)6.9 mphScattered Clouds
3:21 AM53.6 °F46.4 °F77 %29.88 in10.0 miSSW (200°)5.8 mphMostly Cloudy
3:54 AM54.0 °F46.9 °F77 %29.88 in10.0 miSouth (190°)4.6 mphOvercast
4:54 AM54.0 °F48.0 °F80 %29.86 in10.0 miCalmOvercast
5:54 AM55.9 °F48.9 °F77 %29.86 in10.0 miCalmOvercast
6:54 AM57.0 °F51.1 °F81 %29.84 in10.0 miSouth (180°)8.1 mphOvercast
7:54 AM59.0 °F52.0 °F78 %29.83 in10.0 miSouth (180°)11.5 mph19.6 mphMostly Cloudy
8:54 AM61.0 °F52.0 °F72 %29.83 in10.0 miSouth (190°)13.8 mph25.3 mphOvercast
9:54 AM61.0 °F52.0 °F72 %29.83 in10.0 miSouth (190°)11.5 mph24.2 mphOvercast
10:54 AM62.1 °F53.1 °F72 %29.83 in10.0 miSouth (190°)13.8 mph25.3 mphOvercast
11:54 AM63.0 °F53.1 °F70 %29.79 in10.0 miSouth (180°)6.9 mph0.00 inOvercast
12:54 PM63.0 °F53.1 °F70 %29.75 in10.0 miSouth (180°)10.4 mph21.9 mphOvercast
1:54 PM63.0 °F53.1 °F70 %29.74 in10.0 miSSW (200°)17.3 mph23.0 mphMostly Cloudy
2:54 PM62.1 °F53.1 °F72 %29.69 in10.0 miSouth (170°)10.4 mph19.6 mph0.00 inOvercast
3:54 PM60.1 °F54.0 °F80 %29.65 in10.0 miVariable6.9 mph20.7 mph0.01 inRainLight Rain
4:54 PM61.0 °F54.0 °F78 %29.65 in10.0 miSouth (180°)10.4 mph20.7 mphOvercast
5:54 PM62.1 °F55.0 °F78 %29.65 in10.0 miSouth (180°)11.5 mph21.9 mphOvercast
6:54 PM64.0 °F55.0 °F73 %29.63 in10.0 miSouth (180°)16.1 mph28.8 mphMostly Cloudy
7:54 PM64.9 °F55.0 °F70 %29.64 in10.0 miSSW (200°)13.8 mph21.9 mphMostly Cloudy
8:54 PM64.9 °F57.0 °F75 %29.66 in10.0 miSSW (200°)17.3 mph27.6 mph0.00 inRainLight Rain
9:54 PM64.0 °F59.0 °F84 %29.61 in10.0 miSouth (170°)18.4 mph29.9 mph0.02 inRainLight Rain
10:54 PM64.0 °F60.1 °F87 %29.63 in10.0 miSouth (180°)10.4 mph0.00 inRainLight Rain
11:54 PM64.9 °F60.1 °F84 %29.62 in10.0 miSouth (180°)5.8 mph0.01 inScattered Clouds
Hourly data recorded from KSUS, located miles away from St. Louis, Missouri







STORIES FROM OUR PARTNERS